This demonstration page uses our WeatherBlox Daily Observations layout. Learn more.

Left ArrowRight Arrow

41.12389, -100.76542

Hourly Observations for September 13, 2017

Temp ( °F °C ) Dew Point ( °F °C ) Humidity (%) Winds ( mph kmh ) Pressure ( in mb ) Visibility ( mi km ) Precip ( " mm )
12:33 am 00:33 Mostly Cloudy with Nearby Thunderstorms 72 22.2 56 13.3 57 57 NNW 10 17 29.83 1010 10 16 0.00 0.00
12:45 am 00:45 Cloudy with Thunderstorms 71 21.7 57 13.9 61 61 WNW 6 9 29.83 1010 10 16 0.00 0.00
12:53 am 00:53 Cloudy with Thunderstorms 71 21.7 58 14.4 63 63 SSE 9 15 29.83 1010 10 16 0.00 0.03
1:28 am 01:28 Partly Cloudy with Nearby Thunderstorms 73 22.8 58 14.4 59 59 S 17 28 29.74 1007 10 16 0.01 0.25
1:39 am 01:39 Partly Cloudy with Light Rain 73 22.8 57 13.9 57 57 S 20 31 29.71 1006 10 16 0.01 0.25
1:53 am 01:53 Mostly Clear 74 23.3 56 13.3 54 54 S 20 31 29.70 1006 10 16 0.01 0.25
2:53 am 02:53 Clear 74 23.3 56 13.3 54 54 S 5 7 29.74 1007 10 16 0.00 0.00
3:53 am 03:53 Clear 72 22.2 55 12.8 55 55 S 8 13 29.74 1007 10 16 0.00 0.00
4:53 am 04:53 Clear 70 21.1 54 12.2 57 57 SE 3 6 29.73 1007 10 16 0.00 0.00
5:53 am 05:53 Clear 68 20 54 12.2 61 61 Calm 29.74 1007 10 16 0.00 0.00
6:53 am 06:53 Clear 65 18.3 56 13.3 73 73 S 10 17 29.72 1007 10 16 0.00 0.00
7:53 am 07:53 Sunny 64 17.8 56 13.3 75 75 SSE 14 22 29.73 1007 10 16 0.00 0.00
8:53 am 08:53 Sunny 67 19.4 57 13.9 71 71 SE 5 7 29.75 1007 10 16 0.00 0.00
9:53 am 09:53 Sunny 71 21.7 58 14.4 63 63 SSE 5 7 29.74 1007 10 16 0.00 0.00
10:53 am 10:53 Sunny 76 24.4 58 14.4 54 54 Calm 29.74 1007 10 16 0.00 0.00
11:53 am 11:53 Sunny 77 25 58 14.4 52 52 Calm 29.73 1007 10 16 0.00 0.00
12:53 pm 12:53 Sunny 81 27.2 59 15 47 47 VRB 3 6 29.70 1006 10 16 0.00 0.00
1:53 pm 13:53 Sunny 87 30.6 59 15 39 39 S 10 17 29.66 1005 10 16 0.00 0.00
2:53 pm 14:53 Sunny 91 32.8 60 15.6 35 35 S 7 11 29.62 1003 10 16 0.00 0.00
3:53 pm 15:53 Sunny 93 33.9 59 15 32 32 W 7 11 29.60 1003 10 16 0.00 0.00
4:53 pm 16:53 Sunny 94 34.4 57 13.9 29 29 W 8 13 29.59 1002 10 16 0.00 0.00
5:53 pm 17:53 Sunny 91 32.8 62 16.7 38 38 N 6 9 29.57 1002 10 16 0.00 0.00
6:53 pm 18:53 Sunny 87 30.6 61 16.1 42 42 E 10 17 29.58 1002 10 16 0.00 0.00
7:53 pm 19:53 Sunny 77 25 62 16.7 60 60 ESE 8 13 29.61 1003 10 16 0.00 0.00
8:53 pm 20:53 Clear 71 21.7 62 16.7 73 73 ESE 8 13 29.63 1003 10 16 0.00 0.00
9:53 pm 21:53 Clear 77 25 57 13.9 50 50 S 8 13 29.61 1003 10 16 0.00 0.00
10:53 pm 22:53 Clear 73 22.8 56 13.3 55 55 SSW 5 7 29.61 1003 10 16 0.00 0.00
11:53 pm 23:53 Clear 70 21.1 55 12.8 59 59 Calm 29.61 1003 10 16 0.00 0.00

Powered by AerisWeather